Content
SEND FEEDBACK

Daily
Averages
Monthly
Summary
United States of America

CABAZON, CALIFORNIA


Home > North America > United States > California
Elevation: 1790 feet     Latitude: 33 55N     Longitude: 116 47W

WEATHER
 
SELECT A DAY
Number of Records: 160,554;   Date Range: 1/1/95 - 7/22/14
 
SHARE

PRINT THIS DATA

[ ← Previous Day ]
WEATHER ALMANAC - FEBRUARY 13, 2013
[ Next Day → ]
[ °C ]   °F
Weather ElementAverageHighLow
Temperature58.7 °F75.9 °F (3:53 pm)44.1 °F (3:53 am)
Dewpoint24.3 °F30.9 °F (9:53 pm)16 °F (12:53 pm)
Humidity30 %51 % (3:53 am)11 % (2:53 pm)
Barometer30.17 in30.25 in (7:53 am)30.08 in (4:53 pm)
Wind Speed4.3 mph9.2 mph (2:53 am)
Weather ElementAverage
Visibility10 mi
Wind DirectionSSE (163.5 °)

Weather ElementTotal
Precipitation---
Heating Degree Days5 (Base 65)
Growing Degree Days10 (Base 50)
Averaged from 23 records on February 13, 2013
WEATHER CONDITIONS BREAKOUT
WIND DIRECTION BREAKOUT
WEATHER BY HOUR - FEBRUARY 13, 2013
[ °C ]   °F
Local TimeTemperatureDewpointHumidityBarometerVisibilityWind DirectionWind SpeedGust SpeedPrecipitationEventsConditions
1:53 AM46.9 °F26.1 °F44 %30.23 in10.0 miNW (320°)6.9 mphClear
2:53 AM46.0 °F26.1 °F46 %30.22 in10.0 miNNW (330°)9.2 mph
3:53 AM44.1 °F27.0 °F51 %30.22 in10.0 miCalmClear
4:53 AM45.0 °F25.0 °F46 %30.22 in10.0 miNNW (330°)6.9 mphClear
5:53 AM46.9 °F24.1 °F41 %30.22 in10.0 miNNW (330°)8.1 mphClear
6:53 AM46.0 °F24.1 °F42 %30.23 in10.0 miWNW (290°)3.5 mphClear
7:53 AM48.9 °F25.0 °F39 %30.25 in10.0 miNW (310°)5.8 mphClear
8:53 AM57.0 °F23.0 °F27 %30.24 in10.0 miWNW (300°)4.6 mphClear
9:53 AM61.0 °F26.1 °F26 %30.24 in10.0 miCalmClear
10:53 AM64.9 °F19.9 °F18 %30.22 in10.0 miCalmClear
11:53 AM70.0 °F18.0 °F14 %30.19 in10.0 miCalmClear
12:53 PM71.1 °F16.0 °F12 %30.14 in10.0 miESE (110°)5.8 mphClear
1:53 PM73.9 °F18.0 °F12 %30.11 in10.0 miSSW (210°)5.8 mphClear
2:53 PM75.0 °F17.1 °F11 %30.09 in10.0 miCalmClear
3:53 PM75.9 °F18.0 °F11 %30.09 in10.0 miVariable3.5 mphClear
4:53 PM72.0 °F25.0 °F17 %30.08 in10.0 miEast (100°)6.9 mphClear
5:53 PM66.0 °F26.1 °F22 %30.10 in10.0 miESE (110°)8.1 mphClear
6:53 PM62.1 °F26.1 °F25 %30.12 in10.0 miCalmClear
7:53 PM59.0 °F27.0 °F29 %30.13 in10.0 miCalmClear
8:53 PM57.0 °F30.0 °F36 %30.14 in10.0 miCalmClear
9:53 PM54.0 °F30.9 °F41 %30.14 in10.0 miNorth (360°)6.9 mphClear
10:53 PM55.0 °F30.9 °F40 %30.14 in10.0 miNW (320°)8.1 mphClear
11:53 PM53.1 °F30.0 °F41 %30.14 in10.0 miNNW (340°)8.1 mphClear
Hourly data recorded from KPSP, located miles away from Cabazon, California







STORIES FROM OUR PARTNERS